Regional Weather Roundup
Issued by NWS

Home | Current Version | Previous Version | Graphics & Text | Print | Product List | Glossary On
Versions: 1 2 3 4 5 6 7 8 9 10 11 12 13 14 15 16 17 18 19 20 21 22 23 24 25 26 27 28 29 30 31 32 33 34 35 36 37 38 39 40 41 42 43 44 45 46 47 48 49 50
000
ASUS45 KCYS 280410
RWRWY

WYOMING REGIONAL WEATHER ROUNDUP
NATIONAL WEATHER SERVICE CHEYENNE WY
1000 PM MDT WED AUG 27 2014

NOTE:  "FAIR" INDICATES FEW OR NO CLOUDS BELOW 12,000 FEET
WITH NO SIGNIFICANT WEATHER AND/OR OBSTRUCTIONS TO VISIBILITY.

WYZ001-280500-
YELLOWSTONE NATIONAL PARK

CITY           SKY/WX    TMP DP  RH WIND       PRES   REMARKS
LK YELLOWSTONE   N/A     52  41  66 CALM      30.37R
W YELLOWSTONE  NOT AVBL

$$
WYZ002>013-054>058-071-098>099-280500-
NORTHERN WYOMING

CITY           SKY/WX    TMP DP  RH WIND       PRES   REMARKS
JACKSON        PTCLDY    59  43  55 CALM      30.27S
CODY           PTCLDY    63  52  67 CALM      30.15S
GREYBULL       PTCLDY    66  52  60 E6        30.09R
WORLAND        MOCLDY    61  53  75 S3        30.10S
SHERIDAN       CLOUDY    62  53  72 S5        30.07S
BUFFALO        CLOUDY    61  55  81 S9        30.15S
GILLETTE       CLOUDY    61  56  83 S6        30.12R
HULETT         CLOUDY    61  55  82 MISG      30.13
NEWCASTLE      LGT RAIN  59  59 100 N5        30.12

$$
WYZ014>020-022>026-101>103-280500-
CENTRAL WYOMING

CITY           SKY/WX    TMP DP  RH WIND       PRES   REMARKS
BIG PINEY      CLOUDY    52  50  93 SW3       30.33S
PINEDALE       MOCLDY    50  50 100 CALM      30.34R
DUBOIS         FAIR      50  43  76 NW6       30.28S
LANDER         CLOUDY    58  49  72 W8        30.19R
RIVERTON       CLOUDY    58  52  80 CALM      30.20R
CASPER         MOCLDY    55  53  93 SW6       30.18F
DOUGLAS        MOCLDY    59  57  93 W5        30.16F

$$
WYZ021-027>030-104>119-280500-
SOUTHERN WYOMING

CITY           SKY/WX    TMP DP  RH WIND       PRES   REMARKS
EVANSTON       PTCLDY    49  47  93 SW10      30.36R
KEMMERER       MOCLDY   N/A N/A N/A CALM      30.34F
FORT BRIDGER     N/A     53  49  86 W8        30.36S
ROCK SPRINGS   CLOUDY    51  49  92 SW14      30.30S
DIXON          CLOUDY    55  52  90 CALM      30.32S
RAWLINS        CLOUDY    52  47  83 SW10      30.28S
SARATOGA       CLOUDY    50  45  81 SW9       30.30S
LARAMIE        PTCLDY    49  44  83 CALM      30.27R
CHEYENNE       PTCLDY    56  47  71 NW10      30.20S
TORRINGTON     CLOUDY    63  59  87 N3        30.08F
PINE BLUFFS    FAIR      55  54  94 CALM      30.15R

$$



USA.gov is the U.S. government's official web portal to all federal, state and local government web resources and services.